FW9456 Weather Reports


time (UTC)temp
C
wind
direction
speed
KPH
gust
KPH
rain 1hr
cm
rain 24hr
cm
rain mn
cm
humidity
%
barometer
mb
20260503194538 15 198 3.2 8.0 0.00 0.08 0.08 80 1014.7
20260503193044 15 214 3.2 8.0 0.00 0.08 0.08 82 1014.6
20260503191543 15 219 3.2 8.0 0.00 0.08 0.08 82 1014.7
20260503190044 15 207 1.6 6.4 0.00 0.08 0.08 84 1014.7
20260503184534 14 204 3.2 4.8 0.00 0.08 0.08 85 1014.6
20260503183037 13 221 3.2 6.4 0.00 0.08 0.08 86 1014.7
20260503181532 13 206 1.6 6.4 0.00 0.08 0.08 88 1014.6
20260503180050 12 194 1.6 6.4 0.00 0.08 0.08 89 1014.5
20260503174537 12 186 0.0 3.2 0.00 0.08 0.08 90 1014.6
20260503173051 12 0 0.0 0.0 0.00 0.08 0.08 89 1014.6
20260503171540 12 0 0.0 1.6 0.00 0.08 0.08 90 1014.7
20260503081543 12 0 0.0 4.8 0.00 0.00 0.00 82 1013.0
20260503071545 12 301 0.0 6.4 0.00 0.00 0.00 82 1013.1
20260503054540 12 0 0.0 4.8 0.00 0.00 0.00 82 1013.4
20260503053033 12 0 1.6 6.4 0.00 0.00 0.00 82 1013.4
20260503051530 12 0 0.0 1.6 0.00 0.00 0.00 81 1013.5
20260503050037 12 306 0.0 4.8 0.00 0.00 0.00 81 1013.5
20260503044536 12 246 0.0 8.0 0.00 0.00 0.00 81 1013.6
20260503043101 12 0 0.0 9.7 0.00 0.00 0.00 80 1013.6
20260503041536 12 0 0.0 6.4 0.00 0.00 0.00 80 1013.5
20260503040037 12 260 1.6 12.9 0.00 0.00 0.00 81 1013.3
20260503034536 12 268 0.0 11.3 0.00 0.00 0.00 80 1013.1
20260503033043 12 274 3.2 11.3 0.00 0.00 0.00 80 1012.9
20260503031535 12 249 1.6 11.3 0.00 0.00 0.00 80 1012.7
20260503030035 12 277 1.6 12.9 0.00 0.00 0.00 80 1012.8
20260503024537 12 263 0.0 4.8 0.00 0.00 0.00 81 1012.8
20260503023036 12 242 1.6 11.3 0.00 0.00 0.00 80 1012.7
20260503021538 12 255 1.6 8.0 0.00 0.00 0.00 80 1012.7
20260503020035 12 275 4.8 14.5 0.00 0.00 0.00 80 1012.5
20260503014558 13 0 1.6 11.3 0.00 0.00 0.00 81 1012.7
20260503013040 13 0 3.2 11.3 0.00 0.00 0.00 81 1012.9
20260503011545 13 260 1.6 16.1 0.00 0.00 0.00 80 1012.9
20260503010047 13 234 4.8 12.9 0.00 0.00 0.00 80 1012.9
20260503004539 13 234 3.2 12.9 0.00 0.00 0.00 80 1012.9
20260503003034 13 244 4.8 14.5 0.00 0.00 0.00 79 1012.8
20260503001539 13 268 4.8 16.1 0.00 0.00 0.00 80 1012.9
20260503000036 14 245 3.2 17.7 0.00 0.00 0.00 80 1013.1
20260502234542 13 258 3.2 12.9 0.00 0.00 0.00 79 1013.1
20260502233035 15 276 4.8 12.9 0.00 0.00 0.00 79 1013.2
20260502231537 15 246 3.2 12.9 0.00 0.00 0.00 80 1013.2
20260502230036 14 231 4.8 16.1 0.00 0.00 0.00 80 1013.4
20260502224533 15 239 4.8 12.9 0.00 0.00 0.00 79 1013.7
20260502223039 15 237 3.2 11.3 0.00 0.00 0.00 81 1014.0
20260502221536 14 288 4.8 16.1 0.00 0.00 0.00 80 1014.2
20260502220035 13 323 3.2 12.9 0.00 0.00 0.00 82 1014.3
20260502214535 13 271 3.2 14.5 0.00 0.00 0.00 81 1014.5
20260502213036 14 217 6.4 14.5 0.00 0.00 0.00 79 1014.7
20260502211542 15 206 4.8 11.3 0.00 0.00 0.00 78 1014.7
20260502210038 16 218 6.4 14.5 0.00 0.00 0.00 79 1014.8
20260502204530 15 199 4.8 11.3 0.00 0.00 0.00 80 1014.7
20260502203035 15 230 3.2 9.7 0.00 0.00 0.00 81 1014.8
20260502201537 15 180 3.2 9.7 0.00 0.00 0.00 81 1015.2
20260502200035 15 229 3.2 11.3 0.00 0.00 0.00 81 1015.4